Starlink 31140

operational
NORAD ID: 58767 Int'l Des: 2024-011 Owner: SPXS Country: US Constellation: starlink
LEOCIRCULAR

Über Starlink 31140

Beschreibung wird geladen...

Live-Position

3D-Globus wird geladen...

Nächste Überflüge

Höhenverlauf

Altitude vs Time

uPlot chart will show altitude changes over time

Zweizeiliger Elementsatz

1 58767U 24011C 25304.58115758 -.00001643 00000-0 -43387-4 0 9990
2 58767 53.1601 253.3440 0001194 90.0754 270.0384 15.30184020100506
Epoch: 31. Okt. 2025 • Age: 10 hours

Aktueller Status

Höhe 492.3 km
Geschwindigkeit 7.62 km/s
Subsatellitenpunkt -47.58°S, 78.98°E
Startdatum 14. Jan. 2024
Alter 1.7 years
Typ internet

Technische Details

Klassifizierung Payload
Masse 730.00 kg
Trockenmasse 700.00 kg
Gesamtmasse 730.00 kg
Länge 0.30 m
Durchmesser 4.10 m
Spannweite 29.00 m
Form Box + pan
Hersteller SPXS
Bus-Typ Starlink V2M
Phasenstatus In Orbit
Besitzer/Staat SPXS/US

Große Konstellationen

Loading constellations...